• In Deutschland
  • Länderverzeichnis
  • Für 7 Tage
  • Wassertemperatur
  • Satellitenkarten
  • Wetterkarte
  • Widgets
  • user-avatar
    Anmelden

    Stündliche Wetter Zchaltubo

    Heute, 16 August, Donnerstag

    Zeit Temperatur Niederschläge Wind Luftdruck Luftfeuchtigkeit
    00:00 +23°C° 0 mm 2 m/S 743 mmHg 68%
    01:00 +23°C° 0 mm 2 m/S 743 mmHg 67%
    02:00 +23°C° 0 mm 2 m/S 743 mmHg 65%
    03:00 +22°C° 0 mm 3 m/S 743 mmHg 63%
    04:00 +22°C° 0 mm 3 m/S 743 mmHg 62%
    05:00 +22°C° 0 mm 3 m/S 742 mmHg 62%
    06:00 +22°C° 0 mm 3 m/S 742 mmHg 61%
    07:00 +25°C° 0 mm 3 m/S 742 mmHg 55%
    08:00 +28°C° 0 mm 3 m/S 742 mmHg 49%
    09:00 +30°C° 0 mm 2 m/S 742 mmHg 43%
    10:00 +32°C° 0 mm 2 m/S 741 mmHg 40%
    11:00 +34°C° 0 mm 2 m/S 741 mmHg 36%
    12:00 +36°C° 0 mm 2 m/S 741 mmHg 33%
    13:00 +36°C° 0 mm 2 m/S 741 mmHg 34%
    14:00 +36°C° 0 mm 2 m/S 741 mmHg 35%
    15:00 +36°C° 0 mm 2 m/S 741 mmHg 36%
    16:00 +35°C° 0 mm 2 m/S 741 mmHg 45%
    17:00 +32°C° 0 mm 2 m/S 741 mmHg 53%
    18:00 +31°C° 0 mm 1 m/S 741 mmHg 62%
    19:00 +29°C° 0 mm 1 m/S 741 mmHg 66%
    20:00 +26°C° 0 mm 1 m/S 741 mmHg 70%
    21:00 +24°C° 0 mm 1 m/S 742 mmHg 74%
    22:00 +24°C° 0 mm 1 m/S 742 mmHg 71%
    23:00 +24°C° 0 mm 1 m/S 742 mmHg 69%

    Morgen, 17 August, Freitag

    Zeit Temperatur Niederschläge Wind Luftdruck Luftfeuchtigkeit
    00:00 +24°C° 0 mm 1 m/S 742 mmHg 66%
    01:00 +24°C° 0 mm 1 m/S 742 mmHg 63%
    02:00 +23°C° 0 mm 2 m/S 742 mmHg 60%
    03:00 +23°C° 0 mm 2 m/S 742 mmHg 58%
    04:00 +23°C° 0 mm 2 m/S 742 mmHg 58%
    05:00 +23°C° 0 mm 2 m/S 742 mmHg 59%
    06:00 +23°C° 0 mm 2 m/S 742 mmHg 60%
    07:00 +26°C° 0 mm 1 m/S 741 mmHg 55%
    08:00 +28°C° 0 mm 1 m/S 741 mmHg 51%
    09:00 +31°C° 0 mm 1 m/S 741 mmHg 47%
    10:00 +32°C° 0 mm 1 m/S 741 mmHg 45%
    11:00 +34°C° 0 mm 1 m/S 741 mmHg 43%
    12:00 +36°C° 0 mm 2 m/S 740 mmHg 41%
    13:00 +36°C° 0 mm 2 m/S 740 mmHg 43%
    14:00 +35°C° 0 mm 2 m/S 740 mmHg 45%
    15:00 +35°C° 0 mm 3 m/S 740 mmHg 47%
    16:00 +34°C° 0 mm 2 m/S 740 mmHg 56%
    17:00 +31°C° 0 mm 2 m/S 740 mmHg 65%
    18:00 +30°C° 0 mm 2 m/S 740 mmHg 74%
    19:00 +28°C° 0 mm 1 m/S 740 mmHg 81%
    20:00 +26°C° 0 mm 1 m/S 741 mmHg 87%
    21:00 +24°C° 0 mm 1 m/S 741 mmHg 94%
    22:00 +24°C° 0 mm 1 m/S 741 mmHg 93%
    23:00 +23°C° 0 mm 1 m/S 741 mmHg 92%

    übermorgen, 18 August, Samstag

    Zeit Temperatur Niederschläge Wind Luftdruck Luftfeuchtigkeit
    00:00 +23°C° 0 mm 1 m/S 741 mmHg 91%
    01:00 +23°C° 0 mm 1 m/S 741 mmHg 88%
    02:00 +23°C° 0 mm 1 m/S 741 mmHg 85%
    03:00 +22°C° 0 mm 1 m/S 740 mmHg 81%
    04:00 +23°C° 0 mm 1 m/S 740 mmHg 77%
    05:00 +23°C° 0 mm 1 m/S 740 mmHg 73%
    06:00 +23°C° 0 mm 1 m/S 740 mmHg 69%
    07:00 +25°C° 0 mm 1 m/S 740 mmHg 65%
    08:00 +27°C° 0 mm 1 m/S 740 mmHg 60%
    09:00 +30°C° 0 mm 1 m/S 740 mmHg 56%
    10:00 +31°C° 0 mm 2 m/S 740 mmHg 55%
    11:00 +32°C° 0 mm 2 m/S 740 mmHg 54%
    12:00 +33°C° 0 mm 3 m/S 739 mmHg 53%
    13:00 +33°C° 0,2 mm 3 m/S 739 mmHg 57%
    14:00 +31°C° 0,2 mm 3 m/S 739 mmHg 61%
    15:00 +31°C° 0,2 mm 3 m/S 739 mmHg 65%
    16:00 +30°C° 0,6 mm 3 m/S 739 mmHg 72%
    17:00 +28°C° 0,6 mm 3 m/S 740 mmHg 79%
    18:00 +27°C° 0,6 mm 2 m/S 740 mmHg 86%
    19:00 +26°C° 0,3 mm 2 m/S 741 mmHg 90%
    20:00 +25°C° 0,3 mm 1 m/S 741 mmHg 93%
    21:00 +24°C° 0,3 mm 1 m/S 741 mmHg 97%
    22:00 +24°C° 0,2 mm 1 m/S 741 mmHg 97%
    23:00 +23°C° 0,2 mm 1 m/S 741 mmHg 96%

    19 August, Sonntag

    Zeit Temperatur Niederschläge Wind Luftdruck Luftfeuchtigkeit
    00:00 +21°C° 0,2 mm 0 m/S 741 mmHg 96%
    01:00 +23°C° 0,1 mm 1 m/S 741 mmHg 95%
    02:00 +22°C° 0,1 mm 1 m/S 741 mmHg 94%
    03:00 +22°C° 0,1 mm 1 m/S 741 mmHg 94%
    04:00 +22°C° 0,1 mm 1 m/S 741 mmHg 92%
    05:00 +22°C° 0,1 mm 1 m/S 741 mmHg 91%
    06:00 +21°C° 0,1 mm 1 m/S 741 mmHg 90%
    07:00 +24°C° 0 mm 1 m/S 741 mmHg 80%
    08:00 +26°C° 0 mm 1 m/S 741 mmHg 71%
    09:00 +29°C° 0 mm 1 m/S 741 mmHg 61%
    10:00 +30°C° 0 mm 1 m/S 740 mmHg 58%
    11:00 +31°C° 0 mm 2 m/S 740 mmHg 54%
    12:00 +32°C° 0 mm 2 m/S 740 mmHg 51%
    13:00 +32°C° 0 mm 2 m/S 740 mmHg 54%
    14:00 +32°C° 0 mm 2 m/S 740 mmHg 56%
    15:00 +31°C° 0 mm 3 m/S 740 mmHg 59%
    16:00 +30°C° 1,2 mm 2 m/S 740 mmHg 67%
    17:00 +29°C° 1,2 mm 2 m/S 740 mmHg 75%
    18:00 +27°C° 1,2 mm 2 m/S 740 mmHg 83%
    19:00 +26°C° 0,6 mm 2 m/S 741 mmHg 86%
    20:00 +24°C° 0,6 mm 1 m/S 741 mmHg 90%
    21:00 +23°C° 0,6 mm 1 m/S 741 mmHg 93%
    22:00 +23°C° 0,1 mm 1 m/S 741 mmHg 91%
    23:00 +22°C° 0,1 mm 1 m/S 741 mmHg 90%

    20 August, Montag

    Zeit Temperatur Niederschläge Wind Luftdruck Luftfeuchtigkeit
    00:00 +22°C° 0,1 mm 1 m/S 741 mmHg 88%
    01:00 +22°C° 0 mm 1 m/S 741 mmHg 86%
    02:00 +22°C° 0 mm 1 m/S 741 mmHg 84%
    03:00 +22°C° 0 mm 1 m/S 741 mmHg 82%
    04:00 +22°C° 0 mm 1 m/S 741 mmHg 80%
    05:00 +22°C° 0 mm 1 m/S 742 mmHg 78%
    06:00 +22°C° 0 mm 1 m/S 742 mmHg 76%
    07:00 +24°C° 0 mm 2 m/S 742 mmHg 69%
    08:00 +26°C° 0 mm 2 m/S 742 mmHg 62%
    09:00 +29°C° 0 mm 2 m/S 742 mmHg 55%
    10:00 +30°C° 0 mm 2 m/S 742 mmHg 51%
    11:00 +31°C° 0 mm 2 m/S 741 mmHg 48%
    12:00 +32°C° 0 mm 2 m/S 741 mmHg 44%
    13:00 +32°C° 0,1 mm 2 m/S 741 mmHg 45%
    14:00 +32°C° 0,1 mm 2 m/S 741 mmHg 47%
    15:00 +33°C° 0,1 mm 3 m/S 741 mmHg 48%
    16:00 +31°C° 0,3 mm 2 m/S 741 mmHg 57%
    17:00 +29°C° 0,3 mm 2 m/S 742 mmHg 65%
    18:00 +28°C° 0,3 mm 2 m/S 742 mmHg 73%
    19:00 +26°C° 0,3 mm 1 m/S 742 mmHg 80%
    20:00 +25°C° 0,3 mm 1 m/S 743 mmHg 86%
    21:00 +23°C° 0,3 mm 1 m/S 743 mmHg 92%
    22:00 +23°C° 0,1 mm 1 m/S 743 mmHg 91%
    23:00 +23°C° 0,1 mm 1 m/S 743 mmHg 90%

    21 August, Dienstag

    Zeit Temperatur Niederschläge Wind Luftdruck Luftfeuchtigkeit
    00:00 +22°C° 0,1 mm 1 m/S 743 mmHg 89%
    01:00 +22°C° 0 mm 1 m/S 743 mmHg 87%
    02:00 +22°C° 0 mm 1 m/S 743 mmHg 85%
    03:00 +21°C° 0 mm 1 m/S 743 mmHg 83%
    04:00 +21°C° 0 mm 1 m/S 743 mmHg 81%
    05:00 +21°C° 0 mm 1 m/S 743 mmHg 79%
    06:00 +21°C° 0 mm 1 m/S 744 mmHg 76%
    07:00 +24°C° 0 mm 1 m/S 744 mmHg 68%
    08:00 +26°C° 0 mm 1 m/S 744 mmHg 60%
    09:00 +29°C° 0 mm 1 m/S 744 mmHg 51%
    10:00 +30°C° 0 mm 1 m/S 743 mmHg 48%
    11:00 +31°C° 0 mm 1 m/S 743 mmHg 45%
    12:00 +32°C° 0 mm 2 m/S 743 mmHg 42%
    13:00 +32°C° 0 mm 2 m/S 743 mmHg 44%
    14:00 +32°C° 0 mm 2 m/S 743 mmHg 46%
    15:00 +33°C° 0 mm 3 m/S 743 mmHg 48%
    16:00 +31°C° 0 mm 2 m/S 743 mmHg 58%
    17:00 +29°C° 0 mm 2 m/S 743 mmHg 67%
    18:00 +28°C° 0 mm 2 m/S 743 mmHg 76%
    19:00 +26°C° 0,1 mm 1 m/S 744 mmHg 82%
    20:00 +25°C° 0,1 mm 1 m/S 744 mmHg 89%
    21:00 +21°C° 0,1 mm 0 m/S 745 mmHg 95%
    22:00 +23°C° 0 mm 1 m/S 745 mmHg 94%
    23:00 +23°C° 0 mm 1 m/S 745 mmHg 93%
    Mehr zeigen